| time (UTC) | temp F | wind direction | speed MPH | gust MPH | rain 1hr in | rain 24hr in | rain mn in | humidity % | barometer mb |
| 20260507194910 | 59 | 106 | 4.0 | 5.0 | 0.00 | 0.00 | 0.00 | 37 | 1037.2 |
| 20260507193908 | 59 | 126 | 3.0 | 3.0 | 0.00 | 0.00 | 0.00 | 36 | 1037.5 |
| 20260507192908 | 60 | 266 | 6.0 | 8.0 | 0.00 | 0.00 | 0.00 | 34 | 1037.6 |
| 20260507191907 | 59 | 118 | 0.0 | 0.0 | 0.00 | 0.00 | 0.00 | 35 | 1037.5 |
| 20260507190905 | 59 | 308 | 3.0 | 5.0 | 0.00 | 0.00 | 0.00 | 36 | 1037.6 |
| 20260507185902 | 60 | 88 | 0.0 | 1.0 | 0.00 | 0.00 | 0.00 | 36 | 1037.6 |
| 20260507184901 | 61 | 91 | 0.0 | 1.0 | 0.00 | 0.00 | 0.00 | 34 | 1037.7 |
| 20260507183901 | 60 | 207 | 4.0 | 5.0 | 0.00 | 0.00 | 0.00 | 40 | 1038.0 |
| 20260507182856 | 58 | 91 | 0.0 | 0.0 | 0.00 | 0.00 | 0.00 | 37 | 1038.1 |
| 20260507181854 | 59 | 130 | 2.0 | 2.0 | 0.00 | 0.00 | 0.00 | 37 | 1038.4 |
| 20260507180853 | 59 | 65 | 3.0 | 7.0 | 0.00 | 0.00 | 0.00 | 37 | 1038.4 |
| 20260507175851 | 59 | 122 | 2.0 | 2.0 | 0.00 | 0.00 | 0.00 | 37 | 1038.4 |
| 20260507174846 | 58 | 70 | 2.0 | 2.0 | 0.00 | 0.00 | 0.00 | 37 | 1038.6 |
| 20260507173846 | 59 | 113 | 3.0 | 3.0 | 0.00 | 0.00 | 0.00 | 38 | 1038.5 |
| 20260507172845 | 59 | 265 | 4.0 | 5.0 | 0.00 | 0.00 | 0.00 | 38 | 1038.8 |
| 20260507171844 | 58 | 157 | 6.0 | 7.0 | 0.00 | 0.00 | 0.00 | 40 | 1039.0 |
| 20260507170843 | 57 | 110 | 6.0 | 8.0 | 0.00 | 0.00 | 0.00 | 39 | 1039.0 |
| 20260507165841 | 57 | 137 | 7.0 | 8.0 | 0.00 | 0.00 | 0.00 | 39 | 1039.5 |
| 20260507164839 | 57 | 134 | 1.0 | 2.0 | 0.00 | 0.00 | 0.00 | 43 | 1039.4 |
| 20260507163839 | 57 | 211 | 4.0 | 5.0 | 0.00 | 0.00 | 0.00 | 40 | 1039.5 |
| 20260507162839 | 57 | 160 | 1.0 | 2.0 | 0.00 | 0.00 | 0.00 | 39 | 1039.7 |
| 20260507161837 | 56 | 250 | 4.0 | 5.0 | 0.00 | 0.00 | 0.00 | 43 | 1039.7 |
| 20260507160837 | 57 | 70 | 2.0 | 2.0 | 0.00 | 0.00 | 0.00 | 41 | 1040.0 |
| 20260507155834 | 55 | 278 | 6.0 | 8.0 | 0.00 | 0.00 | 0.00 | 41 | 1040.1 |
| 20260507154833 | 56 | 275 | 6.0 | 7.0 | 0.00 | 0.00 | 0.00 | 42 | 1040.2 |
| 20260507153907 | 55 | 279 | 5.0 | 6.0 | 0.00 | 0.00 | 0.00 | 44 | 1040.0 |
| 20260507153833 | 55 | 279 | 5.0 | 6.0 | 0.00 | 0.00 | 0.00 | 44 | 1040.0 |
| 20260507153116 | 55 | 145 | 3.0 | 3.0 | 0.00 | 0.00 | 0.00 | 46 | 1040.6 |
| 20260507152832 | 55 | 145 | 3.0 | 3.0 | 0.00 | 0.00 | 0.00 | 46 | 1040.6 |
| 20260507152224 | 56 | 115 | 2.0 | 3.0 | 0.00 | 0.00 | 0.00 | 40 | 1040.3 |
| 20260507151830 | 56 | 115 | 2.0 | 3.0 | 0.00 | 0.00 | 0.00 | 40 | 1040.3 |
| 20260507150830 | 54 | 43 | 2.0 | 2.0 | 0.00 | 0.00 | 0.00 | 41 | 1040.6 |
| 20260507145828 | 55 | 298 | 3.0 | 5.0 | 0.00 | 0.00 | 0.00 | 43 | 1040.6 |
| 20260507144828 | 56 | 193 | 2.0 | 3.0 | 0.00 | 0.00 | 0.00 | 43 | 1040.8 |
| 20260507143827 | 56 | 155 | 5.0 | 6.0 | 0.00 | 0.00 | 0.00 | 42 | 1040.9 |
| 20260507142826 | 53 | 291 | 5.0 | 6.0 | 0.00 | 0.00 | 0.00 | 44 | 1041.0 |
| 20260507141826 | 54 | 136 | 1.0 | 2.0 | 0.00 | 0.00 | 0.00 | 45 | 1041.1 |
| 20260507140825 | 54 | 148 | 2.0 | 2.0 | 0.00 | 0.00 | 0.00 | 47 | 1041.0 |
| 20260507135820 | 53 | 175 | 8.0 | 9.0 | 0.00 | 0.00 | 0.00 | 46 | 1041.1 |
| 20260507134819 | 53 | 104 | 1.0 | 1.0 | 0.00 | 0.00 | 0.00 | 54 | 1041.4 |
| 20260507133817 | 51 | 136 | 2.0 | 2.0 | 0.00 | 0.00 | 0.00 | 58 | 1041.4 |
| 20260507132818 | 52 | 135 | 2.0 | 2.0 | 0.00 | 0.00 | 0.00 | 57 | 1041.5 |
| 20260507131817 | 49 | 338 | 5.0 | 6.0 | 0.00 | 0.00 | 0.00 | 63 | 1041.6 |
| 20260507130816 | 49 | 91 | 1.0 | 1.0 | 0.00 | 0.00 | 0.00 | 64 | 1041.7 |
| 20260507125812 | 50 | 102 | 1.0 | 1.0 | 0.00 | 0.00 | 0.00 | 67 | 1041.6 |
| 20260507124812 | 47 | 24 | 3.0 | 3.0 | 0.00 | 0.00 | 0.00 | 70 | 1041.7 |
| 20260507123807 | 47 | 144 | 3.0 | 3.0 | 0.00 | 0.00 | 0.00 | 71 | 1041.8 |
| 20260507122806 | 47 | 140 | 2.0 | 2.0 | 0.00 | 0.00 | 0.00 | 72 | 1041.5 |
| 20260507121804 | 47 | 118 | 1.0 | 1.0 | 0.00 | 0.00 | 0.00 | 72 | 1041.7 |
| 20260507120802 | 46 | 126 | 2.0 | 2.0 | 0.00 | 0.00 | 0.00 | 75 | 1041.8 |
| 20260507115801 | 46 | 129 | 3.0 | 3.0 | 0.00 | 0.00 | 0.00 | 83 | 1041.6 |
| 20260507114758 | 44 | 103 | 0.0 | 1.0 | 0.00 | 0.00 | 0.00 | 90 | 1041.5 |
| 20260507113753 | 44 | 100 | 0.0 | 0.0 | 0.00 | 0.00 | 0.00 | 95 | 1041.6 |
| 20260507112754 | 43 | 100 | 0.0 | 0.0 | 0.00 | 0.00 | 0.00 | 95 | 1041.3 |
| 20260507111748 | 43 | 100 | 0.0 | 0.0 | 0.00 | 0.00 | 0.00 | 95 | 1041.5 |
| 20260507110746 | 41 | 92 | 0.0 | 0.0 | 0.00 | 0.00 | 0.00 | 95 | 1041.4 |
| 20260507105746 | 41 | 91 | 0.0 | 0.0 | 0.00 | 0.00 | 0.00 | 95 | 1041.5 |
| 20260507104745 | 39 | 91 | 0.0 | 0.0 | 0.00 | 0.00 | 0.00 | 95 | 1041.5 |
| 20260507103743 | 39 | 85 | 0.0 | 0.0 | 0.00 | 0.00 | 0.00 | 95 | 1041.0 |
| 20260507102742 | 39 | 85 | 0.0 | 0.0 | 0.00 | 0.00 | 0.00 | 95 | 1041.0 |
| 20260507101741 | 39 | 85 | 0.0 | 0.0 | 0.00 | 0.00 | 0.00 | 95 | 1040.9 |
| 20260507100740 | 39 | 85 | 0.0 | 0.0 | 0.00 | 0.00 | 0.00 | 95 | 1040.8 |
| 20260507095736 | 40 | 82 | 0.0 | 0.0 | 0.00 | 0.00 | 0.00 | 95 | 1040.5 |
| 20260507094735 | 40 | 87 | 0.0 | 0.0 | 0.00 | 0.00 | 0.00 | 95 | 1040.8 |
| 20260507093734 | 40 | 93 | 0.0 | 0.0 | 0.00 | 0.00 | 0.00 | 95 | 1040.5 |
| 20260507092730 | 41 | 92 | 0.0 | 0.0 | 0.00 | 0.00 | 0.00 | 95 | 1040.7 |
| 20260507091728 | 41 | 92 | 0.0 | 0.0 | 0.00 | 0.00 | 0.00 | 95 | 1040.6 |
| 20260507090725 | 41 | 93 | 0.0 | 0.0 | 0.00 | 0.00 | 0.00 | 95 | 1040.7 |
| 20260507085725 | 42 | 92 | 0.0 | 0.0 | 0.00 | 0.00 | 0.00 | 95 | 1040.2 |
| 20260507084724 | 43 | 88 | 0.0 | 0.0 | 0.00 | 0.00 | 0.00 | 95 | 1040.0 |
| 20260507083724 | 43 | 88 | 0.0 | 0.0 | 0.00 | 0.00 | 0.00 | 95 | 1040.1 |
| 20260507082722 | 43 | 88 | 0.0 | 0.0 | 0.00 | 0.00 | 0.00 | 95 | 1040.2 |
| 20260507081721 | 43 | 88 | 0.0 | 0.0 | 0.00 | 0.00 | 0.00 | 95 | 1040.4 |
| 20260507080719 | 43 | 88 | 0.0 | 0.0 | 0.00 | 0.00 | 0.00 | 95 | 1040.5 |
| 20260507075717 | 43 | 89 | 0.0 | 0.0 | 0.00 | 0.00 | 0.00 | 95 | 1040.5 |
| 20260507074715 | 43 | 86 | 0.0 | 0.0 | 0.00 | 0.00 | 0.00 | 95 | 1040.4 |
| 20260507073710 | 43 | 86 | 0.0 | 0.0 | 0.00 | 0.00 | 0.00 | 95 | 1040.4 |
| 20260507072710 | 44 | 93 | 0.0 | 0.0 | 0.00 | 0.00 | 0.00 | 95 | 1040.4 |
| 20260507071711 | 45 | 100 | 0.0 | 1.0 | 0.00 | 0.00 | 0.00 | 95 | 1040.5 |
| 20260507070710 | 45 | 86 | 0.0 | 0.0 | 0.00 | 0.00 | 0.00 | 95 | 1040.6 |
| 20260507065708 | 45 | 91 | 0.0 | 0.0 | 0.00 | 0.00 | 0.00 | 95 | 1040.7 |
| 20260507064703 | 45 | 91 | 0.0 | 0.0 | 0.00 | 0.00 | 0.00 | 95 | 1040.9 |
| 20260507063659 | 46 | 91 | 0.0 | 0.0 | 0.00 | 0.00 | 0.00 | 95 | 1040.6 |
| 20260507062658 | 46 | 91 | 0.0 | 0.0 | 0.00 | 0.00 | 0.00 | 95 | 1040.6 |
| 20260507061654 | 46 | 91 | 0.0 | 0.0 | 0.00 | 0.00 | 0.00 | 95 | 1040.3 |
| 20260507060649 | 46 | 92 | 0.0 | 0.0 | 0.00 | 0.00 | 0.00 | 95 | 1040.4 |
| 20260507055647 | 46 | 87 | 0.0 | 0.0 | 0.00 | 0.00 | 0.00 | 95 | 1040.1 |
| 20260507054645 | 46 | 87 | 0.0 | 0.0 | 0.00 | 0.00 | 0.00 | 95 | 1040.4 |
| 20260507053640 | 46 | 91 | 0.0 | 0.0 | 0.00 | 0.00 | 0.00 | 95 | 1040.0 |
| 20260507052636 | 46 | 99 | 0.0 | 0.0 | 0.00 | 0.00 | 0.00 | 95 | 1040.2 |
| 20260507051636 | 46 | 99 | 0.0 | 0.0 | 0.00 | 0.00 | 0.00 | 95 | 1040.0 |
| 20260507050635 | 46 | 91 | 0.0 | 0.0 | 0.00 | 0.00 | 0.00 | 95 | 1040.2 |
| 20260507045634 | 46 | 88 | 0.0 | 0.0 | 0.00 | 0.00 | 0.00 | 95 | 1039.8 |
| 20260507044634 | 46 | 89 | 0.0 | 0.0 | 0.00 | 0.00 | 0.00 | 95 | 1040.0 |
| 20260507043633 | 46 | 88 | 0.0 | 0.0 | 0.00 | 0.00 | 0.00 | 95 | 1040.0 |
| 20260507042632 | 46 | 88 | 0.0 | 0.0 | 0.00 | 0.00 | 0.00 | 95 | 1039.8 |
| 20260507041630 | 47 | 105 | 1.0 | 1.0 | 0.00 | 0.00 | 0.00 | 95 | 1039.9 |
| 20260507040630 | 47 | 89 | 0.0 | 0.0 | 0.00 | 0.00 | 0.00 | 95 | 1040.1 |
| 20260507035628 | 46 | 86 | 0.0 | 0.0 | 0.00 | 0.48 | 0.48 | 95 | 1040.6 |
| 20260507034627 | 47 | 94 | 0.0 | 0.0 | 0.00 | 0.48 | 0.48 | 95 | 1040.5 |
| 20260507033623 | 47 | 96 | 0.0 | 0.0 | 0.00 | 0.48 | 0.48 | 95 | 1040.2 |
| 20260507032623 | 47 | 91 | 0.0 | 0.0 | 0.00 | 0.48 | 0.48 | 95 | 1039.9 |
| 20260507031621 | 48 | 87 | 0.0 | 0.0 | 0.00 | 0.48 | 0.48 | 95 | 1039.9 |
| 20260507030620 | 48 | 86 | 1.0 | 1.0 | 0.00 | 0.48 | 0.48 | 95 | 1039.8 |
| 20260507025615 | 48 | 89 | 0.0 | 0.0 | 0.00 | 0.48 | 0.48 | 95 | 1039.9 |
| 20260507024610 | 48 | 87 | 0.0 | 0.0 | 0.00 | 0.48 | 0.48 | 95 | 1039.8 |
| 20260507023608 | 48 | 99 | 0.0 | 0.0 | 0.00 | 0.48 | 0.48 | 95 | 1039.8 |
| 20260507022603 | 48 | 101 | 0.0 | 0.0 | 0.00 | 0.48 | 0.48 | 95 | 1040.4 |
| 20260507021600 | 48 | 86 | 0.0 | 0.0 | 0.00 | 0.48 | 0.48 | 95 | 1040.6 |
| 20260507020555 | 48 | 85 | 0.0 | 0.0 | 0.00 | 0.48 | 0.48 | 95 | 1040.7 |
| 20260507015555 | 48 | 96 | 0.0 | 0.0 | 0.00 | 0.48 | 0.48 | 95 | 1040.5 |
| 20260507014555 | 48 | 92 | 0.0 | 0.0 | 0.00 | 0.48 | 0.48 | 95 | 1040.9 |
| 20260507013553 | 48 | 92 | 0.0 | 0.0 | 0.00 | 0.48 | 0.48 | 95 | 1040.7 |
| 20260507012548 | 48 | 92 | 0.0 | 0.0 | 0.00 | 0.48 | 0.48 | 94 | 1040.7 |
| 20260507011547 | 48 | 92 | 0.0 | 0.0 | 0.00 | 0.48 | 0.48 | 94 | 1040.6 |
| 20260507010543 | 48 | 92 | 0.0 | 0.0 | 0.00 | 0.48 | 0.48 | 94 | 1040.4 |
| 20260507005538 | 49 | 92 | 0.0 | 0.0 | 0.00 | 0.48 | 0.48 | 94 | 1040.5 |
| 20260507004537 | 49 | 92 | 0.0 | 0.0 | 0.00 | 0.48 | 0.48 | 93 | 1040.1 |
| 20260507003536 | 49 | 88 | 0.0 | 0.0 | 0.00 | 0.48 | 0.48 | 93 | 1040.2 |
| 20260507002534 | 49 | 85 | 0.0 | 0.0 | 0.00 | 0.48 | 0.48 | 93 | 1039.9 |
| 20260507001532 | 49 | 90 | 0.0 | 0.0 | 0.00 | 0.48 | 0.48 | 92 | 1039.6 |
| 20260507000532 | 49 | 84 | 1.0 | 1.0 | 0.00 | 0.48 | 0.48 | 92 | 1039.3 |
| 20260506235531 | 50 | 91 | 0.0 | 1.0 | 0.00 | 0.48 | 0.48 | 92 | 1039.1 |
| 20260506234530 | 50 | 124 | 2.0 | 2.0 | 0.00 | 0.48 | 0.48 | 91 | 1038.8 |
| 20260506233530 | 50 | 90 | 1.0 | 1.0 | 0.00 | 0.48 | 0.48 | 90 | 1039.1 |
| 20260506232529 | 50 | 100 | 0.0 | 1.0 | 0.00 | 0.48 | 0.48 | 90 | 1038.9 |
| 20260506231528 | 50 | 144 | 3.0 | 3.0 | 0.00 | 0.48 | 0.48 | 91 | 1038.7 |
| 20260506230527 | 51 | 102 | 1.0 | 1.0 | 0.00 | 0.48 | 0.48 | 92 | 1038.5 |
| 20260506225527 | 51 | 100 | 0.0 | 0.0 | 0.00 | 0.48 | 0.48 | 90 | 1038.5 |
| 20260506224525 | 51 | 83 | 1.0 | 1.0 | 0.00 | 0.48 | 0.48 | 89 | 1038.1 |
| 20260506223523 | 51 | 113 | 1.0 | 2.0 | 0.00 | 0.48 | 0.48 | 90 | 1037.8 |
| 20260506222522 | 52 | 102 | 1.0 | 1.0 | 0.00 | 0.48 | 0.48 | 91 | 1037.9 |
| 20260506221521 | 52 | 294 | 4.0 | 5.0 | 0.00 | 0.48 | 0.48 | 91 | 1037.5 |
| 20260506220520 | 53 | 69 | 2.0 | 2.0 | 0.00 | 0.48 | 0.48 | 91 | 1037.3 |
| 20260506215519 | 54 | 121 | 1.0 | 1.0 | 0.00 | 0.48 | 0.48 | 91 | 1036.8 |
| 20260506214517 | 56 | 143 | 2.0 | 3.0 | 0.00 | 0.48 | 0.48 | 93 | 1036.4 |
| 20260506213513 | 57 | 17 | 3.0 | 3.0 | 0.00 | 0.48 | 0.48 | 94 | 1036.1 |
| 20260506212511 | 60 | 80 | 0.0 | 1.0 | 0.07 | 0.48 | 0.48 | 95 | 1035.6 |
| 20260506211509 | 60 | 86 | 1.0 | 1.0 | 0.00 | 0.47 | 0.47 | 95 | 1035.3 |
| 20260506210508 | 60 | 104 | 0.0 | 1.0 | 0.12 | 0.47 | 0.47 | 94 | 1035.2 |
| 20260506205508 | 61 | 91 | 0.0 | 0.0 | 0.00 | 0.45 | 0.45 | 94 | 1035.3 |
| 20260506204508 | 60 | 98 | 0.0 | 0.0 | 0.05 | 0.45 | 0.45 | 94 | 1035.1 |
| 20260506203502 | 60 | 86 | 0.0 | 0.0 | 0.00 | 0.44 | 0.44 | 93 | 1035.2 |
| 20260506202502 | 61 | 101 | 1.0 | 1.0 | 0.07 | 0.44 | 0.44 | 93 | 1034.9 |
| 20260506201502 | 61 | 86 | 1.0 | 1.0 | 0.00 | 0.43 | 0.43 | 92 | 1035.0 |
| 20260506200500 | 61 | 96 | 0.0 | 0.0 | 0.00 | 0.43 | 0.43 | 91 | 1035.0 |